GW1771 Weather Reports


time (UTC)temp
C
wind
direction
speed
KPH
gust
KPH
rain 1hr
cm
rain 24hr
cm
rain mn
cm
humidity
%
barometer
mb
20260504235118 20 27 3.2 3.2 0.00 0.00 0.00 31 1002.5
20260504234615 21 309 4.8 4.8 0.00 0.00 0.00 31 1002.7
20260504234112 21 311 8.0 14.5 0.00 0.00 0.00 30 1002.3
20260504233608 21 316 6.4 14.5 0.00 0.00 0.00 30 1002.4
20260504233104 21 350 3.2 4.8 0.00 0.00 0.00 30 1002.6
20260504232602 21 325 6.4 9.7 0.00 0.00 0.00 30 1002.2
20260504232059 21 343 8.0 11.3 0.00 0.00 0.00 30 1002.1
20260504231555 22 26 4.8 4.8 0.00 0.00 0.00 30 1002.0
20260504231051 22 281 4.8 4.8 0.00 0.00 0.00 30 1001.9
20260504230547 22 355 6.4 9.7 0.00 0.00 0.00 29 1001.6
20260504230047 22 343 8.0 16.1 0.00 0.00 0.00 29 1001.6
20260504225543 22 329 3.2 3.2 0.00 0.00 0.00 29 1001.6
20260504225041 22 70 3.2 4.8 0.00 0.00 0.00 29 1001.5
20260504224537 23 307 6.4 14.5 0.00 0.00 0.00 29 1001.2
20260504224034 23 304 8.0 12.9 0.00 0.00 0.00 29 1001.2
20260504223531 23 11 6.4 14.5 0.00 0.00 0.00 29 1001.1
20260504223027 23 327 8.0 14.5 0.00 0.00 0.00 28 1000.9
20260504222524 23 321 4.8 9.7 0.00 0.00 0.00 28 1000.8
20260504222021 23 315 4.8 11.3 0.00 0.00 0.00 28 1000.7
20260504221518 23 344 3.2 8.0 0.00 0.00 0.00 29 1000.3
20260504221015 24 18 11.3 17.7 0.00 0.00 0.00 27 1000.3
20260504220512 24 327 1.6 1.6 0.00 0.00 0.00 29 1000.5
20260504220009 25 304 4.8 12.9 0.00 0.00 0.00 29 1000.3
20260504215505 25 356 3.2 3.2 0.00 0.00 0.00 28 1000.3
20260504215003 25 250 8.0 12.9 0.00 0.00 0.00 28 1000.2
20260504214458 25 12 3.2 4.8 0.00 0.00 0.00 30 1000.2
20260504213955 25 338 3.2 4.8 0.00 0.00 0.00 29 1000.3
20260504213451 25 333 3.2 3.2 0.00 0.00 0.00 29 1000.1
20260504212949 25 56 3.2 4.8 0.00 0.00 0.00 31 1000.0
20260504212444 25 323 1.6 1.6 0.00 0.00 0.00 31 1000.5
20260504211942 25 352 3.2 3.2 0.00 0.00 0.00 30 1000.2
20260504211438 25 10 1.6 3.2 0.00 0.00 0.00 32 1000.0
20260504210936 25 234 1.6 4.8 0.00 0.00 0.00 31 1000.0
20260504210433 25 295 3.2 3.2 0.00 0.00 0.00 32 999.9
20260504205930 25 314 1.6 3.2 0.00 0.00 0.00 31 1000.0
20260504205427 25 335 8.0 11.3 0.00 0.00 0.00 31 999.9
20260504204925 25 351 1.6 3.2 0.00 0.00 0.00 31 999.8
20260504204423 25 4 0.0 1.6 0.00 0.00 0.00 34 999.9
20260504203922 25 357 1.6 1.6 0.00 0.00 0.00 31 999.9
20260504203420 25 42 1.6 3.2 0.00 0.00 0.00 32 999.9
20260504202915 26 57 4.8 9.7 0.00 0.00 0.00 32 1000.0
20260504202412 26 339 1.6 3.2 0.00 0.00 0.00 34 999.8
20260504201909 26 330 3.2 11.3 0.00 0.00 0.00 34 1000.0
20260504201406 26 262 6.4 9.7 0.00 0.00 0.00 33 1000.0
20260504200903 27 289 1.6 1.6 0.00 0.00 0.00 35 999.7
20260504200400 27 328 0.0 1.6 0.00 0.00 0.00 34 999.7
20260504195857 26 105 0.0 0.0 0.00 0.00 0.00 34 999.8
20260504195352 26 7 0.0 0.0 0.00 0.00 0.00 33 999.9
20260504194849 26 73 0.0 0.0 0.00 0.00 0.00 32 999.8
20260504194345 27 18 4.8 4.8 0.00 0.00 0.00 32 999.9
20260504193841 27 351 1.6 1.6 0.00 0.00 0.00 35 999.7
20260504193339 27 343 3.2 3.2 0.00 0.00 0.00 32 999.5
20260504192838 27 304 1.6 3.2 0.00 0.00 0.00 32 999.8
20260504192335 27 305 11.3 16.1 0.00 0.00 0.00 31 999.7
20260504191833 27 163 3.2 4.8 0.00 0.00 0.00 31 999.3
20260504191330 27 326 1.6 4.8 0.00 0.00 0.00 31 999.7
20260504190826 27 203 3.2 4.8 0.00 0.00 0.00 33 999.5
20260504190322 27 328 3.2 3.2 0.00 0.00 0.00 31 999.3
20260504185819 27 287 4.8 8.0 0.00 0.00 0.00 28 999.4
20260504185316 27 16 11.3 14.5 0.00 0.00 0.00 30 999.3
20260504184812 27 324 4.8 8.0 0.00 0.00 0.00 29 999.4
20260504184308 28 354 8.0 16.1 0.00 0.00 0.00 29 999.2
20260504183803 28 216 1.6 1.6 0.00 0.00 0.00 30 999.4
20260504183301 28 350 0.0 1.6 0.00 0.00 0.00 32 999.2
20260504182759 28 27 1.6 3.2 0.00 0.00 0.00 28 999.0
20260504182256 28 301 0.0 1.6 0.00 0.00 0.00 30 999.3
20260504181753 28 288 1.6 3.2 0.00 0.00 0.00 32 998.9
20260504181250 27 13 1.6 3.2 0.00 0.00 0.00 30 999.3
20260504180749 27 13 0.0 0.0 0.00 0.00 0.00 30 999.2
20260504180248 27 318 4.8 9.7 0.00 0.00 0.00 31 999.4
20260504175745 27 27 6.4 9.7 0.00 0.00 0.00 28 999.6
20260504175242 27 340 3.2 3.2 0.00 0.00 0.00 31 999.5
20260504174739 27 312 1.6 3.2 0.00 0.00 0.00 32 999.6
20260504174237 26 269 4.8 8.0 0.00 0.00 0.00 29 999.7
20260504173733 26 318 3.2 3.2 0.00 0.00 0.00 30 999.6
20260504173231 26 335 1.6 3.2 0.00 0.00 0.00 32 999.7
20260504172727 26 309 3.2 3.2 0.00 0.00 0.00 33 999.5
20260504172224 26 7 0.0 1.6 0.00 0.00 0.00 34 999.6
20260504171720 25 11 1.6 1.6 0.00 0.00 0.00 32 999.4
20260504171217 25 0 1.6 3.2 0.00 0.00 0.00 33 999.6
20260504170714 25 341 1.6 1.6 0.00 0.00 0.00 33 999.6
20260504170212 24 359 0.0 1.6 0.00 0.00 0.00 35 999.6
20260504160130 21 351 0.0 1.6 0.00 0.00 0.00 43 999.8
20260504151057 19 83 0.0 1.6 0.00 0.00 0.00 50 999.5
20260504150555 19 70 0.0 0.0 0.00 0.00 0.00 48 1000.0
20260504141020 16 13 0.0 0.0 0.00 0.00 0.00 52 1000.1
20260504140517 16 12 0.0 0.0 0.00 0.00 0.00 54 1000.3
20260504130441 -17 0.0 0.0 0.00 0.00 0.00 999.7
20260504110328 8 69 0.0 0.0 0.00 0.00 0.00 81 999.9
20260504100246 9 69 0.0 0.0 0.00 0.00 0.00 76 1000.2
20260504081639 12 101 0.0 0.0 0.00 0.00 0.00 57 1001.4
20260504081135 12 111 4.8 4.8 0.00 0.00 0.00 56 1001.6
20260504080632 12 95 0.0 0.0 0.00 0.00 0.00 58 1001.5
20260504080128 12 95 0.0 0.0 0.00 0.00 0.00 60 1002.0
20260504050445 11 95 0.0 0.0 0.00 0.00 0.00 71 1004.3
20260504045942 11 95 0.0 0.0 0.00 0.00 0.00 70 1004.3
20260504045437 11 95 0.0 0.0 0.00 0.00 0.00 69 1004.3
20260504044934 12 95 0.0 0.0 0.00 0.00 0.00 69 1004.3
20260504044431 12 95 0.0 0.0 0.00 0.00 0.00 68 1004.4
20260504043929 12 95 0.0 0.0 0.00 0.00 0.00 66 1004.4
20260504043425 12 95 0.0 0.0 0.00 0.00 0.00 66 1004.4
20260504042917 12 95 0.0 0.0 0.00 0.00 0.00 64 1004.6
20260504042414 12 95 0.0 0.0 0.00 0.00 0.00 64 1004.4
20260504041910 12 95 0.0 0.0 0.00 0.00 0.00 66 1004.5
20260504041406 12 95 0.0 0.0 0.00 0.00 0.00 64 1004.4
20260504040903 13 95 0.0 0.0 0.00 0.00 0.00 66 1004.6
20260504040400 13 96 0.0 0.0 0.00 0.00 0.00 60 1004.7
20260504035856 13 95 0.0 0.0 0.00 0.00 0.00 63 1004.8
20260504035354 13 95 0.0 0.0 0.00 0.00 0.00 63 1004.8
20260504034850 13 95 0.0 0.0 0.00 0.00 0.00 63 1004.8
20260504034348 13 95 0.0 0.0 0.00 0.00 0.00 64 1004.7
20260504033844 13 95 0.0 0.0 0.00 0.00 0.00 62 1004.8
20260504033343 13 95 0.0 0.0 0.00 0.00 0.00 61 1004.8
20260504032839 13 95 0.0 0.0 0.00 0.00 0.00 60 1004.9
20260504032336 13 95 0.0 0.0 0.00 0.00 0.00 60 1004.9
20260504031833 14 95 0.0 0.0 0.00 0.00 0.00 60 1004.9
20260504031330 13 95 0.0 0.0 0.00 0.00 0.00 60 1005.2
20260504030826 14 95 0.0 0.0 0.00 0.00 0.00 60 1005.2
20260504030324 13 95 0.0 0.0 0.00 0.00 0.00 57 1004.9
20260504025820 13 95 0.0 0.0 0.00 0.00 0.00 59 1005.3
20260504025317 14 95 0.0 0.0 0.00 0.00 0.00 63 1005.3
20260504024814 14 95 0.0 0.0 0.00 0.00 0.00 59 1005.2
20260504024310 15 95 0.0 0.0 0.00 0.00 0.00 58 1005.4
20260504023807 15 95 0.0 0.0 0.00 0.00 0.00 57 1005.2
20260504023303 15 95 0.0 0.0 0.00 0.00 0.00 57 1005.4
20260504022759 15 95 0.0 0.0 0.00 0.00 0.00 55 1005.3
20260504022256 15 95 0.0 0.0 0.00 0.00 0.00 56 1005.5
20260504021753 15 95 0.0 0.0 0.00 0.00 0.00 53 1005.2
20260504021250 15 95 0.0 0.0 0.00 0.00 0.00 53 1005.5
20260504020747 15 95 0.0 0.0 0.00 0.00 0.00 53 1005.5
20260504020243 16 95 0.0 0.0 0.00 0.00 0.00 53 1005.5
20260504015739 16 95 0.0 0.0 0.00 0.00 0.00 50 1005.5
20260504015236 16 95 0.0 0.0 0.00 0.00 0.00 51 1005.7
20260504014732 16 95 0.0 0.0 0.00 0.00 0.00 51 1005.5
20260504014229 17 95 0.0 0.0 0.00 0.00 0.00 50 1005.6
20260504013727 17 95 0.0 0.0 0.00 0.00 0.00 49 1005.4
20260504013224 17 95 0.0 0.0 0.00 0.00 0.00 47 1005.5
20260504012720 18 95 0.0 0.0 0.00 0.00 0.00 44 1005.5
20260504012219 18 95 0.0 0.0 0.00 0.00 0.00 43 1005.5
20260504011715 19 95 0.0 0.0 0.00 0.00 0.00 42 1005.6
20260504011212 19 95 0.0 0.0 0.00 0.00 0.00 42 1005.6
20260504010708 20 95 0.0 0.0 0.00 0.00 0.00 40 1005.6
20260504010203 20 95 0.0 0.0 0.00 0.00 0.00 40 1005.5
20260504005700 20 95 0.0 0.0 0.00 0.00 0.00 38 1005.6
20260504005157 20 95 0.0 0.0 0.00 0.00 0.00 37 1006.0
20260504004655 21 96 0.0 0.0 0.00 0.00 0.00 38 1005.7
20260504004152 21 97 0.0 0.0 0.00 0.00 0.00 37 1005.8
20260504003648 21 96 0.0 0.0 0.00 0.00 0.00 37 1006.0
20260504003145 21 96 0.0 0.0 0.00 0.00 0.00 38 1006.0
20260504002642 21 102 0.0 0.0 0.00 0.00 0.00 39 1006.1
20260504002139 21 96 0.0 0.0 0.00 0.00 0.00 39 1006.0
20260504001637 21 96 0.0 0.0 0.00 0.00 0.00 37 1006.0
20260504001133 21 100 0.0 0.0 0.00 0.00 0.00 37 1006.1
20260504000630 22 95 0.0 0.0 0.00 0.00 0.00 38 1006.1
20260504000128 22 95 0.0 0.0 0.00 0.00 0.00 38 1006.5
20260503235626 22 98 1.6 1.6 0.00 0.00 0.00 36 1006.2
20260503235122 22 29 0.0 1.6 0.00 0.00 0.00 36 1006.4